Theta_e
316 314 313 312 310 305 304 298 289 288 289 282 283 284 284 291 290 288 286 289 285 289 290 288 288 287 284 284 286 285 285 280 283 276 278 288 290 294 294 295 296 294 295 294 294 296 297 307 313 315 316 316 316 317 317 318 318 318 317 318 318 317 318 318 318 318 317 317 318 319 318 316 317 317 315 315 316 318 315 317 317 317 317 318 319 317 317 318 318 319 318 318 318 318 317 317 316
310 311 309 311 307 300 296 293 286 282 284 283 284 285 287 288 288 286 287 286 287 288 289 287 288 288 287 286 286 285 283 286 285 287 288 292 293 292 292 294 293 295 295 294 294 295 298 300 314 313 315 316 316 315 317 317 317 317 316 318 318 318 318 318 317 316 317 316 317 317 316 314 316 316 314 314 315 316 314 315 318 318 316 317 317 318 317 317 317 317 316 317 317 319 318 316 316
309 309 310 306 305 300 296 293 284 278 278 278 281 285 288 286 286 287 289 289 290 290 288 289 287 286 284 284 284 281 280 287 287 288 289 291 288 290 292 293 295 295 296 295 295 297 298 304 312 312 314 315 315 316 316 317 316 316 316 317 318 318 317 317 315 316 315 313 315 315 315 313 315 315 314 313 316 315 315 315 316 316 316 316 316 318 316 316 315 315 318 318 317 318 317 315 315
309 309 304 301 296 297 289 285 281 279 280 281 279 286 287 285 288 289 290 290 290 289 289 288 285 286 284 283 282 285 283 285 289 288 287 290 289 291 291 294 298 295 296 295 295 297 297 309 311 312 313 314 315 315 317 316 315 315 316 317 317 317 317 316 315 315 314 312 313 313 313 313 314 313 313 313 315 314 314 315 315 315 315 315 316 316 316 317 317 316 316 316 317 317 315 314 314
309 310 307 300 295 292 288 282 281 279 281 281 280 285 289 288 289 290 289 290 290 289 289 287 284 286 287 285 286 283 284 287 289 288 288 289 290 291 292 298 295 295 295 295 295 296 297 316 310 311 312 314 315 314 317 314 314 315 315 316 316 316 316 315 314 313 312 311 313 313 313 313 312 312 312 313 313 313 313 315 314 314 315 315 314 314 316 316 315 315 316 315 315 314 314 313 312
306 307 307 303 294 294 290 285 284 284 283 283 283 286 289 290 289 287 288 290 291 288 287 284 285 285 283 285 287 284 287 285 289 288 289 292 295 294 295 301 293 295 294 293 294 295 296 314 309 311 311 313 315 315 315 314 314 314 314 315 315 315 315 314 313 312 311 311 312 312 312 311 311 311 311 312 312 312 313 313 313 313 314 313 313 313 315 314 314 314 315 313 313 313 313 312 312
304 298 299 299 295 295 285 284 283 283 286 286 286 288 290 290 288 287 286 287 288 287 286 286 285 284 283 285 286 288 289 292 287 290 291 293 293 294 294 294 294 294 293 292 294 295 299 312 309 309 310 312 314 315 315 313 315 313 314 315 315 314 313 312 312 311 311 311 310 310 310 310 310 310 310 310 312 311 312 312 313 312 312 312 311 313 313 312 312 313 313 312 312 311 311 311 311
303 298 295 292 287 288 284 283 283 281 285 288 290 290 290 291 289 287 286 285 285 285 286 285 285 283 284 285 282 288 287 289 291 291 291 292 292 292 294 292 294 294 293 292 293 296 308 315 309 309 309 311 314 314 313 313 314 314 313 314 313 313 312 311 310 310 310 310 309 309 309 308 309 309 309 309 310 310 310 311 311 311 311 311 311 311 311 311 311 311 311 311 310 310 310 310 309
300 297 294 292 285 284 282 282 283 285 286 286 289 293 297 291 290 286 284 286 286 284 284 284 285 281 283 282 282 285 285 288 288 292 296 293 292 293 294 292 292 294 292 292 293 295 297 312 308 308 309 310 312 312 312 312 312 313 313 313 312 311 309 309 309 309 309 310 308 308 308 308 308 307 308 308 308 308 309 310 310 310 310 310 310 310 310 310 309 309 309 309 309 309 308 308 308
294 294 286 287 285 283 284 279 281 284 285 288 287 288 288 289 287 286 284 285 285 285 286 285 284 281 283 282 281 286 289 289 290 291 290 292 293 293 293 292 293 292 294 292 293 295 299 308 311 308 309 309 311 311 311 312 312 312 313 312 310 309 308 307 308 308 308 308 307 307 307 307 307 307 307 306 307 307 307 308 308 309 309 309 309 309 308 308 308 308 308 308 308 307 307 307 307
287 291 291 286 282 280 281 280 282 285 287 287 288 288 288 288 286 284 285 285 285 285 285 285 284 282 281 281 281 286 288 287 291 290 290 291 292 293 291 293 293 292 293 293 296 294 293 298 306 311 309 310 310 310 310 311 311 311 310 309 308 307 306 306 306 306 306 305 305 305 306 306 305 305 304 304 306 306 305 305 307 308 307 307 307 307 307 307 307 307 307 307 306 306 305 306 306
288 286 288 282 280 280 281 283 283 285 286 285 287 288 287 288 287 286 285 285 284 283 284 286 284 282 280 279 281 285 286 287 289 290 289 291 291 293 292 290 292 292 293 292 292 292 293 293 296 305 309 309 309 309 309 309 309 309 308 307 306 306 305 304 305 304 304 304 303 303 304 304 304 303 303 303 304 304 304 304 305 306 306 306 306 306 305 306 305 305 306 305 305 304 304 304 304
291 289 288 283 281 282 282 283 282 285 280 286 287 288 287 286 285 285 284 283 282 282 283 285 284 284 280 281 282 283 286 287 287 289 290 290 292 291 291 291 293 293 293 295 291 291 292 293 294 296 304 306 307 309 308 308 308 307 306 305 304 303 303 302 302 302 302 302 301 301 301 301 301 300 301 301 301 302 302 303 303 305 305 304 304 304 304 304 305 305 304 304 304 303 303 303 303
290 285 287 283 280 281 280 280 280 281 282 286 287 287 286 286 286 285 283 283 282 282 286 286 286 282 281 281 282 280 281 285 287 290 290 292 291 291 292 290 291 291 292 291 291 291 292 293 294 294 294 295 295 300 306 306 305 305 303 303 302 301 301 300 300 300 299 299 299 299 299 299 299 299 298 299 299 300 300 300 301 303 303 303 303 303 303 303 303 303 303 302 302 301 300 300 301
290 288 286 282 279 278 281 280 282 279 283 286 289 285 284 286 285 285 283 281 284 286 287 287 286 284 281 280 279 280 284 288 289 291 291 291 291 291 291 291 291 292 292 290 291 291 291 292 292 293 295 293 294 295 295 300 303 302 302 301 300 299 299 298 297 297 297 297 297 297 296 296 295 297 296 296 297 299 299 298 298 300 302 301 301 302 302 302 302 302 301 301 301 299 298 298 298
290 288 284 281 279 279 281 281 279 281 283 287 288 284 283 284 284 283 284 286 284 284 285 286 285 286 283 283 284 285 286 287 291 290 291 291 291 290 290 290 290 290 291 291 290 290 291 291 291 293 293 293 293 293 294 294 299 300 299 299 298 297 297 296 295 294 294 294 294 294 294 289 290 289 294 290 294 295 296 294 296 298 300 300 300 300 300 300 300 301 300 300 299 297 296 295 296
290 289 283 278 279 279 281 281 278 280 282 286 287 282 283 281 282 284 284 283 282 283 282 284 286 285 282 285 287 286 287 293 295 290 291 290 288 288 288 288 290 288 291 290 289 290 291 291 291 292 293 293 293 293 292 293 294 295 295 296 296 295 294 294 293 292 290 291 290 290 289 285 283 285 286 286 290 288 294 294 294 296 298 297 297 298 299 299 299 299 299 298 297 295 293 291 292
288 283 281 281 279 281 282 282 280 284 286 287 285 282 280 280 282 284 283 283 279 281 282 281 283 285 285 286 286 287 287 289 289 289 288 288 286 287 288 287 285 288 287 290 289 290 290 291 291 291 292 292 292 293 292 290 290 291 287 288 290 290 291 290 288 287 288 284 288 285 284 285 283 284 285 288 285 287 288 293 292 293 295 295 294 295 296 297 297 298 297 295 294 292 290 281 283
284 280 283 282 279 285 285 285 283 286 286 285 283 280 281 282 281 283 281 281 279 281 282 281 283 284 286 286 286 287 288 288 287 287 287 288 287 287 287 285 286 287 288 288 289 290 289 291 291 291 291 292 292 291 291 291 288 286 286 286 287 289 288 286 283 286 283 283 284 283 285 283 282 283 285 286 285 287 286 290 290 290 291 292 291 291 292 293 293 294 294 292 291 289 281 280 280
284 284 282 282 281 285 286 286 286 286 286 282 281 282 281 282 282 283 283 280 280 281 279 281 281 283 284 285 286 286 288 288 287 287 286 286 286 286 286 287 287 286 288 288 290 291 290 290 290 292 291 291 292 291 290 289 287 286 285 285 285 284 283 284 283 283 283 283 282 283 282 283 282 281 285 286 285 281 281 285 287 287 287 288 288 284 286 288 289 288 289 289 285 282 279 280 280
285 285 278 285 284 284 286 284 285 283 283 281 281 281 281 282 282 283 279 281 279 277 279 282 281 281 283 283 283 286 287 288 287 287 287 287 287 287 286 286 286 286 287 289 291 290 290 290 290 290 290 291 291 291 290 288 287 286 285 284 284 283 283 282 282 282 282 282 282 282 281 282 281 280 280 280 280 280 279 279 279 279 280 279 285 278 279 279 280 278 279 281 278 279 279 279 280
284 282 283 285 284 284 285 283 283 281 280 280 280 282 282 283 282 278 281 280 279 282 283 282 281 283 284 284 284 285 286 287 287 287 287 287 287 287 287 286 287 286 289 287 289 289 290 290 290 290 290 289 289 289 290 292 288 285 285 285 283 283 283 282 281 281 282 282 282 283 282 280 280 280 279 279 279 279 279 279 278 279 278 278 281 278 278 278 278 278 278 278 278 278 278 279 279
284 282 281 282 284 284 284 283 282 281 280 280 282 283 282 280 282 278 280 279 280 280 282 282 282 283 285 284 283 285 286 286 286 287 287 287 287 287 287 287 287 288 290 287 287 290 290 290 289 290 289 289 288 287 287 288 287 287 287 286 284 283 282 281 281 281 282 282 282 283 280 279 279 279 279 278 278 278 278 278 278 278 278 278 279 278 277 277 277 277 278 278 278 278 278 278 279
287 282 282 282 282 283 281 283 278 278 281 284 282 284 283 281 283 280 280 280 280 281 280 280 281 283 284 284 283 285 286 286 287 287 287 287 288 288 288 287 286 287 286 287 288 290 293 289 290 290 289 288 287 286 286 285 285 287 288 287 285 286 283 281 281 281 282 281 283 282 283 278 278 278 278 278 278 278 278 278 278 278 278 278 278 278 277 277 277 277 277 277 277 277 277 278 278
284 282 283 283 281 281 280 279 279 280 280 280 281 283 282 281 282 281 280 280 280 282 281 281 281 281 282 283 283 283 284 284 286 286 287 287 286 288 289 286 286 286 287 287 288 288 289 292 290 289 290 288 287 287 286 285 285 285 284 284 283 286 281 281 281 281 280 281 281 281 283 278 278 278 278 277 277 277 277 277 277 277 277 278 278 277 277 276 276 277 277 277 277 276 276 277 278
281 282 281 281 281 281 281 281 279 279 282 280 285 281 279 278 280 281 281 283 281 282 281 280 281 282 282 282 283 282 283 284 285 286 287 287 287 288 287 286 286 287 288 287 287 288 289 289 289 289 289 289 288 286 285 284 283 283 283 283 283 284 280 282 281 280 280 280 280 280 281 281 278 278 278 277 277 277 277 277 277 277 277 277 277 276 277 276 276 276 277 276 276 276 276 277 278
281 281 281 282 282 283 282 283 280 280 283 280 283 280 281 281 281 279 282 281 283 282 282 280 281 282 282 283 283 281 281 283 285 285 286 286 286 286 287 286 287 287 288 287 287 288 293 290 290 292 292 292 287 286 285 284 285 283 284 281 281 280 281 282 281 280 280 280 280 279 279 281 280 278 278 277 276 276 276 276 276 277 276 277 277 276 277 277 276 276 276 276 276 275 276 276 277
283 283 283 281 280 282 281 281 281 282 284 280 283 281 281 279 282 279 281 283 281 282 282 282 281 281 281 281 281 282 283 283 282 283 285 285 287 287 286 287 287 285 287 287 288 288 291 289 290 291 290 292 291 288 289 286 284 284 283 282 281 282 283 279 279 280 282 280 280 279 279 279 281 278 277 278 277 276 276 276 276 276 276 276 277 276 276 276 276 276 277 276 276 275 275 276 277
282 281 281 280 276 282 281 283 282 281 284 281 280 281 280 278 282 283 280 280 282 280 281 280 281 280 279 279 280 281 283 283 282 282 284 286 286 286 287 287 287 287 287 288 288 291 289 289 289 289 288 288 287 286 285 285 284 284 283 282 284 282 280 280 279 279 279 280 280 279 279 280 280 278 277 277 279 275 275 275 275 277 276 276 276 277 276 276 276 276 276 277 276 275 275 276 277
282 280 279 278 273 277 281 281 280 282 282 279 280 279 274 276 275 277 278 281 280 281 280 280 279 279 279 279 280 281 282 282 282 284 285 285 285 285 287 286 287 287 288 287 288 290 291 290 292 290 289 288 288 286 285 284 283 284 285 283 284 281 279 279 281 279 281 280 279 279 278 279 278 278 277 276 276 275 275 275 275 275 276 276 276 276 275 275 275 275 276 275 277 275 274 275 275
280 279 277 275 274 278 281 281 280 283 281 278 283 279 275 274 277 281 279 279 281 281 280 280 279 279 279 280 280 281 283 283 284 284 284 284 284 285 286 285 287 287 290 287 289 289 293 290 292 291 289 286 289 288 286 285 284 283 281 280 280 280 280 279 278 278 278 279 279 278 279 280 278 278 277 276 275 275 275 274 275 275 276 276 275 275 275 275 275 275 276 274 274 274 274 276 275
275 279 277 273 273 279 278 282 279 281 282 279 279 275 274 277 277 277 278 279 279 279 280 279 278 279 279 278 280 281 283 283 282 283 284 284 284 285 286 286 287 288 288 289 289 289 290 289 291 287 287 285 284 287 285 284 282 282 282 285 281 280 280 279 278 278 278 278 279 278 278 279 277 277 277 277 275 275 274 274 274 276 276 275 275 275 276 275 274 275 275 275 274 274 275 274 274
274 276 278 277 275 278 278 282 277 280 280 279 280 278 278 282 281 280 277 280 279 279 278 278 278 278 279 280 279 280 281 283 283 283 283 283 284 285 285 286 287 288 288 288 289 288 289 289 290 286 284 284 284 284 283 283 283 283 282 281 280 280 278 278 278 278 278 278 278 278 278 279 276 276 277 276 276 275 274 275 275 275 277 274 274 274 274 276 274 275 275 277 274 273 273 273 274
276 274 276 276 279 277 277 278 281 279 280 281 278 280 276 279 279 278 277 279 279 279 280 279 279 279 279 279 279 279 280 280 283 284 284 283 284 284 284 290 288 288 288 289 290 290 290 290 286 285 284 284 283 284 283 283 282 282 281 282 283 279 278 278 278 279 278 277 277 278 278 279 278 276 276 277 276 277 275 275 274 275 276 274 274 274 274 275 274 274 274 275 275 274 273 273 273
279 277 276 278 276 275 277 277 280 280 278 281 277 279 279 280 280 278 276 278 278 280 281 280 279 278 279 278 279 279 279 280 283 282 283 284 285 285 284 287 287 286 288 288 288 288 289 287 288 289 285 284 284 284 284 283 282 281 279 279 279 279 278 278 278 277 277 277 277 278 279 279 279 276 276 277 276 275 274 274 274 274 276 274 274 274 274 275 275 274 274 274 275 275 274 274 273
278 274 278 276 278 278 279 278 279 280 279 280 278 279 279 280 280 278 276 278 278 280 278 279 279 279 279 279 279 279 280 282 283 282 284 284 285 285 285 286 286 286 287 287 288 287 287 287 286 286 284 284 283 283 283 281 281 282 280 281 281 281 279 281 278 277 277 277 279 278 278 277 279 278 275 275 275 276 274 274 274 275 275 274 274 274 274 274 274 274 274 275 273 274 275 274 274
275 274 274 275 276 275 277 278 280 277 280 277 276 276 275 278 279 280 278 277 278 278 279 280 280 280 280 279 279 280 280 282 282 283 284 285 286 285 285 285 286 286 286 287 287 287 287 288 287 284 284 283 284 282 281 280 279 279 279 279 278 278 279 279 279 278 277 278 278 277 278 278 277 278 278 276 274 277 275 274 274 274 275 276 275 274 274 274 275 275 274 275 275 273 273 274 274
276 275 274 278 276 279 280 281 278 280 281 278 275 277 280 279 279 277 277 279 280 280 280 280 281 280 280 279 280 280 281 281 283 287 287 286 286 285 284 285 287 287 287 286 287 288 286 285 285 284 284 284 282 282 284 281 279 279 278 279 278 278 281 279 277 278 278 280 278 278 278 277 276 277 278 277 276 274 274 274 274 274 274 275 276 275 275 276 274 273 274 273 274 274 273 274 274
276 279 276 278 278 276 277 277 277 279 281 277 275 279 281 282 279 278 277 279 278 279 281 280 280 280 280 279 279 280 280 282 284 285 284 284 285 285 284 285 286 287 288 288 287 286 285 284 284 284 284 284 283 283 282 281 280 283 279 279 279 278 277 278 277 280 280 277 277 277 278 276 276 276 276 278 276 275 274 274 274 274 274 276 273 273 273 273 273 273 273 273 273 274 274 275 274
278 279 279 278 277 278 278 277 278 279 280 279 278 277 282 277 276 277 278 278 278 277 277 279 280 281 282 281 281 282 281 282 285 286 286 284 284 284 284 284 286 285 286 286 286 286 286 287 284 284 284 283 283 286 286 281 282 281 280 279 279 278 278 280 278 278 277 276 277 277 277 276 276 276 276 277 276 275 274 274 274 274 274 276 274 273 273 273 273 273 273 274 274 272 272 273 276
277 276 276 277 277 278 277 277 277 277 279 278 277 277 275 274 282 283 282 276 279 279 279 278 279 279 280 280 280 281 283 284 285 285 284 284 284 286 286 286 284 285 286 287 287 287 288 286 285 284 284 284 283 289 284 283 282 279 279 279 279 278 278 276 277 276 277 278 278 276 276 276 276 276 276 275 278 274 275 274 274 274 274 275 275 273 273 273 273 273 273 273 273 272 272 272 274
276 278 279 279 277 279 277 277 276 272 278 279 277 275 274 276 275 277 280 277 280 277 279 282 282 280 279 281 282 282 283 283 285 286 287 286 286 286 285 284 285 285 286 287 288 288 287 286 285 284 283 283 284 285 283 283 283 279 278 277 276 276 276 275 276 276 276 276 277 276 276 276 276 276 274 275 277 277 274 274 274 274 274 275 276 274 273 273 273 273 274 273 273 274 272 272 272
277 279 278 278 278 278 277 277 278 276 278 279 276 278 273 275 275 277 276 275 279 280 279 281 281 281 279 282 282 282 283 284 283 283 283 283 285 284 285 285 286 286 287 287 286 287 286 286 285 284 283 283 283 283 283 286 280 279 279 278 278 277 276 276 275 276 276 276 277 276 276 276 275 275 276 275 275 277 275 274 274 274 274 274 276 274 273 273 273 273 275 273 273 276 273 272 272
280 278 276 277 279 279 278 276 277 278 277 281 277 275 274 274 277 277 275 276 278 280 282 282 282 282 281 281 282 282 282 283 285 285 285 284 284 285 287 287 286 287 288 285 286 286 286 286 284 284 283 285 282 283 282 283 281 279 278 278 279 277 277 277 276 276 275 278 275 276 275 275 276 275 275 274 275 275 276 274 274 274 274 274 277 274 273 274 275 275 275 274 274 275 273 272 272
279 278 279 279 279 278 276 277 275 276 278 277 275 276 275 272 276 276 276 281 278 280 282 283 283 282 282 282 282 282 283 283 283 285 285 285 285 285 286 287 288 287 286 286 286 287 286 285 285 283 282 283 282 282 283 281 283 280 279 278 278 280 277 277 277 279 277 278 274 275 275 275 275 275 275 275 274 274 278 276 274 274 274 274 277 276 274 274 273 273 273 273 273 273 274 275 273
280 279 278 278 277 277 278 276 279 274 276 272 276 276 273 275 275 275 276 280 278 280 281 282 282 282 282 282 283 283 282 282 281 283 284 284 285 285 286 286 285 286 286 286 285 284 284 283 284 283 282 282 282 281 283 281 281 282 278 278 278 278 279 278 277 276 276 275 274 275 274 274 274 275 274 274 274 274 275 275 276 274 274 275 278 274 273 273 273 273 273 273 274 273 273 273 274
279 281 280 278 276 276 275 274 275 272 269 271 275 274 276 273 277 278 282 282 279 279 277 277 277 278 280 281 282 283 283 283 283 283 283 284 283 283 282 284 286 284 283 284 285 284 284 283 283 282 282 282 281 281 281 280 280 280 279 278 278 277 277 277 276 275 274 274 274 274 274 274 274 274 274 276 274 274 274 276 276 274 275 277 277 274 273 273 274 273 274 273 273 273 273 273 275
281 279 280 277 278 275 275 267 269 270 267 268 273 274 273 274 275 280 278 277 276 280 282 281 281 281 282 281 282 282 282 283 284 283 284 284 283 283 281 283 284 285 283 284 284 284 284 283 282 283 282 281 280 281 281 280 280 280 279 278 278 277 277 277 276 275 275 275 275 274 274 274 274 275 274 274 274 274 275 275 276 276 275 275 274 274 274 274 274 274 273 274 274 273 273 275 273
279 277 275 275 269 271 272 265 275 267 274 277 274 273 274 274 278 281 280 279 278 277 280 282 280 282 282 281 282 282 281 281 283 283 284 284 284 285 284 284 283 284 285 285 285 284 284 283 282 282 283 282 281 280 280 280 280 279 279 278 278 278 277 276 276 276 275 275 275 274 274 274 274 274 274 274 274 274 275 275 274 274 274 275 276 274 274 274 274 273 273 273 273 273 273 273 273
278 278 274 271 266 261 266 259 262 267 274 276 274 273 275 276 279 280 281 281 280 280 279 279 280 281 282 282 281 280 281 281 282 283 283 284 285 285 285 285 285 285 285 286 285 285 284 284 282 282 284 282 281 280 279 279 279 279 279 278 278 278 277 276 276 276 276 275 275 275 275 274 274 274 274 274 274 274 275 276 276 275 274 274 275 275 274 274 274 273 273 273 273 273 273 273 273
279 277 277 277 268 272 269 266 275 273 274 275 273 273 273 277 283 282 279 281 280 279 278 278 278 278 279 279 279 280 280 281 281 282 284 285 285 285 286 285 285 285 285 285 285 285 284 284 283 283 283 282 281 280 280 279 279 279 278 278 278 277 277 277 276 277 276 275 275 275 275 275 274 274 274 275 275 275 275 275 275 274 274 274 274 274 276 274 274 275 275 274 275 274 273 274 273
277 277 276 275 277 273 274 266 266 266 267 271 272 275 275 282 283 282 279 278 278 277 277 278 279 279 278 280 282 282 283 283 282 282 283 284 285 285 285 285 285 285 286 285 285 285 284 284 284 283 283 283 281 281 280 280 279 279 278 278 278 278 280 278 278 278 277 276 275 275 275 275 275 275 274 275 275 275 275 274 275 275 275 274 274 274 274 274 273 273 273 274 273 275 274 273 273
280 278 275 278 277 274 267 267 265 267 267 268 268 277 279 280 283 282 279 278 280 278 277 278 280 279 278 281 283 283 283 283 283 283 284 285 284 284 285 285 285 285 285 286 286 286 286 285 284 283 283 283 282 281 281 280 280 279 279 278 278 277 278 278 277 277 277 276 276 275 275 275 275 275 275 275 274 275 275 274 274 274 274 274 273 274 274 274 273 273 274 273 272 273 274 273 273
279 275 279 278 275 273 275 275 264 262 269 273 271 275 277 277 280 281 284 282 285 281 280 279 279 279 281 284 284 284 285 285 284 283 284 284 284 285 285 285 285 286 286 286 287 287 286 286 285 285 284 283 282 281 281 280 280 279 279 278 278 277 278 278 278 277 276 276 275 275 275 275 275 275 275 275 275 274 274 276 274 274 274 274 273 273 273 273 273 273 272 273 273 273 273 274 274
281 279 280 282 274 279 272 269 271 270 267 267 273 271 273 275 280 280 284 281 284 284 282 281 282 282 282 284 284 284 284 283 284 285 285 285 285 285 286 286 286 286 286 287 287 287 286 286 286 285 285 285 284 283 282 281 280 280 280 279 278 278 277 277 278 277 276 276 275 275 275 275 275 275 276 275 275 274 274 274 274 274 274 274 273 273 273 273 273 272 272 272 273 273 272 272 273
275 278 279 278 277 273 272 274 270 273 268 270 272 271 278 278 276 281 282 280 281 281 281 284 284 283 283 283 284 284 284 284 284 285 285 286 286 286 286 286 286 286 286 286 286 286 286 286 286 285 285 284 283 282 282 281 280 280 280 279 279 278 278 277 277 277 276 276 276 275 275 275 275 275 275 275 274 274 274 274 273 274 273 273 273 273 273 273 272 272 272 272 273 273 272 272 273
279 278 274 275 272 277 276 270 274 276 264 266 265 272 275 280 279 280 282 282 282 281 283 283 284 284 284 283 283 284 284 284 285 285 285 286 286 286 286 285 286 285 285 285 285 286 286 286 286 286 285 284 283 283 282 282 281 280 280 279 279 278 277 277 277 277 276 276 276 276 275 275 275 275 275 274 274 274 274 274 273 274 273 273 273 273 273 273 272 272 272 272 272 272 272 272 273
277 277 277 277 274 274 275 274 271 264 272 268 264 274 276 282 281 281 282 283 281 280 280 282 283 284 284 285 284 283 284 285 284 285 284 285 285 285 285 284 284 284 285 285 286 285 285 286 286 286 285 285 284 284 282 282 281 281 280 280 279 278 278 277 277 276 276 276 275 275 276 275 275 275 275 274 274 274 274 274 273 273 273 273 273 273 273 273 272 272 272 271 271 272 272 272 272
Wind_Speed
8 7 4 3 4 3 10 9 9 6 4 9 5 5 2 1 1 2 1 2 2 1 0 2 7 5 4 4 8 4 1 3 1 3 1 1 2 6 5 5 2 1 2 4 3 4 6 9 15 15 14 14 16 17 18 19 19 19 20 20 21 21 21 22 21 24 23 23 25 23 23 22 22 23 24 22 21 22 22 21 22 22 22 22 22 22 21 21 21 21 20 21 21 20 19 19 20
6 3 7 10 8 4 5 3 8 4 6 9 6 1 1 3 3 1 1 1 2 2 2 3 5 9 10 9 6 2 4 3 3 0 2 3 5 2 4 4 3 3 2 2 4 4 5 7 13 15 16 16 17 16 17 18 19 20 19 19 21 22 21 21 24 24 22 21 21 22 23 21 22 22 20 20 21 22 21 21 21 21 22 22 21 23 21 21 22 21 21 22 19 21 21 20 20
6 7 2 5 13 8 3 6 7 1 9 11 2 2 2 4 2 1 1 3 4 5 2 1 3 3 3 3 6 3 0 0 1 1 1 2 2 3 5 5 2 1 1 3 3 4 4 7 14 16 16 17 17 17 18 17 19 19 19 20 20 21 21 22 23 21 21 20 20 21 20 21 22 20 19 20 21 20 20 21 21 21 22 21 21 22 21 22 20 21 21 21 22 21 22 19 19
7 9 4 6 5 7 6 6 5 4 8 4 3 2 1 2 0 0 1 2 4 3 0 2 4 1 2 8 1 1 1 1 1 1 0 1 1 2 3 3 4 0 1 2 4 4 4 6 14 16 16 17 17 16 18 19 19 19 19 20 20 20 21 21 21 21 20 20 20 19 19 20 20 19 20 20 20 20 20 21 20 20 21 21 23 21 21 21 23 22 22 21 22 21 20 19 19
14 10 9 8 8 7 5 3 4 3 7 2 4 1 0 1 2 1 1 1 2 2 2 0 3 2 1 4 0 1 0 2 2 3 1 3 2 3 2 0 1 1 1 3 4 4 5 10 14 15 15 15 16 17 18 18 17 19 20 20 20 21 20 20 20 20 19 20 20 19 19 19 19 19 19 20 20 20 21 21 21 21 21 21 20 20 22 22 20 21 21 21 20 20 19 18 19
11 14 11 9 6 4 5 8 10 11 2 3 3 3 2 1 2 3 2 1 0 1 2 3 1 2 2 1 1 1 1 2 1 1 1 1 0 1 1 0 0 1 1 3 3 4 5 9 14 14 15 14 16 17 18 17 19 19 19 19 20 19 19 19 20 20 19 19 19 18 18 19 18 19 19 19 20 20 20 19 20 20 21 20 20 21 21 20 21 22 20 20 20 20 19 19 19
2 7 8 10 5 6 8 10 8 5 3 2 3 4 4 2 4 6 4 2 0 3 2 1 1 2 4 1 1 1 3 0 1 1 4 2 1 1 0 0 0 0 2 3 4 4 6 11 13 14 14 14 15 16 16 18 17 18 19 19 19 19 19 19 20 19 19 19 19 18 18 18 18 19 19 19 19 19 19 20 19 20 20 21 19 20 19 20 20 21 20 20 20 19 19 19 18
4 8 4 11 6 6 8 7 7 1 2 2 0 4 1 4 4 1 0 2 2 2 2 1 2 4 0 3 1 1 3 3 2 2 3 2 3 1 0 1 1 0 2 3 4 4 7 11 12 13 14 13 14 15 15 16 17 17 19 18 18 19 19 19 19 19 19 19 19 18 18 18 18 19 18 19 19 19 19 19 19 19 19 19 20 19 19 19 19 19 19 19 19 19 19 18 18
9 9 1 10 10 4 6 8 4 1 1 3 2 0 3 2 0 3 4 1 1 2 4 3 1 2 1 2 1 2 4 2 3 5 5 1 2 2 0 0 2 1 2 3 3 4 4 9 12 13 13 13 14 15 16 16 16 17 18 18 18 19 19 19 19 19 19 19 18 18 18 18 18 18 18 18 19 19 19 19 18 19 19 19 19 20 19 19 19 19 19 19 18 18 18 18 18
6 6 4 6 4 10 9 3 6 2 1 1 1 2 2 1 3 4 4 5 2 1 2 1 1 4 1 2 2 2 0 4 4 3 3 1 0 1 1 1 1 1 0 2 4 4 4 8 12 12 13 13 14 15 16 16 16 17 17 18 18 19 19 19 19 18 18 18 19 18 18 18 18 18 18 18 19 18 19 18 18 19 18 18 18 18 19 19 19 19 18 18 18 18 18 18 18
4 6 2 10 9 7 7 3 3 2 1 3 2 2 1 1 4 3 2 2 1 1 1 3 5 1 1 1 2 4 4 3 1 1 3 2 1 0 1 0 1 0 2 3 4 4 4 5 11 12 12 13 14 15 15 16 16 16 17 18 19 19 19 19 18 18 18 18 18 18 18 18 18 18 18 18 19 19 18 18 18 19 18 18 19 18 18 19 18 18 18 18 18 18 17 17 17
7 4 6 8 7 6 1 7 4 1 2 2 2 3 2 2 1 2 1 4 3 3 1 2 1 4 2 2 1 2 7 4 4 3 5 3 2 0 1 1 3 2 1 2 3 4 4 4 5 8 12 14 15 15 15 15 16 16 17 18 18 18 18 18 18 18 18 18 18 18 17 18 18 18 18 19 19 19 19 18 19 19 18 18 18 18 18 18 18 18 18 18 18 18 17 17 17
10 1 12 8 1 4 3 7 2 2 1 2 0 2 1 4 3 5 3 3 1 2 3 3 3 1 1 0 3 5 3 3 4 2 4 3 0 2 2 3 3 2 3 4 4 3 4 5 5 5 8 14 14 16 15 15 16 16 17 17 17 18 18 17 17 17 17 17 17 17 17 17 18 17 18 18 19 19 19 19 18 18 19 18 18 18 18 18 18 18 18 18 18 18 18 18 18
7 3 7 6 0 4 3 2 1 3 2 1 1 2 2 2 0 3 3 5 3 2 1 0 1 2 1 1 2 4 4 4 5 3 1 1 1 3 3 3 3 4 4 4 4 4 5 4 5 4 6 6 7 10 13 16 15 16 17 17 17 17 17 17 17 17 17 16 16 17 17 17 17 18 18 18 19 19 19 19 19 19 18 18 18 19 18 18 18 18 18 18 18 19 18 19 18
7 1 8 6 2 2 0 4 4 3 3 0 0 1 2 2 3 1 4 4 1 1 3 1 1 2 1 2 2 2 1 3 3 2 3 3 4 4 3 3 3 4 5 5 4 5 4 4 4 4 5 5 6 6 6 9 16 16 16 16 17 17 17 17 17 17 17 16 17 16 17 18 17 18 18 18 18 19 19 19 20 18 19 19 19 19 19 18 18 18 17 17 18 19 19 19 19
5 7 6 6 2 4 1 3 0 4 1 1 2 2 6 1 0 1 1 1 1 1 0 1 2 0 1 1 1 3 1 1 2 3 5 4 3 3 3 3 4 4 4 4 4 4 3 4 3 5 5 5 5 6 6 7 11 16 16 16 16 17 17 16 16 17 16 16 16 16 16 14 13 13 18 14 17 18 18 17 19 18 19 20 19 19 19 18 18 18 18 18 18 19 19 19 19
1 6 8 4 4 3 1 2 2 2 1 1 2 3 1 1 1 1 0 1 3 2 3 0 0 0 2 1 1 2 1 1 4 4 5 3 3 2 2 4 4 3 3 4 3 3 4 4 4 4 4 5 5 5 5 5 8 12 11 14 16 16 15 15 15 14 14 13 13 14 12 9 7 6 8 8 14 11 17 18 19 19 19 20 20 20 20 20 19 19 19 19 19 20 19 19 19
6 7 5 9 1 5 3 2 5 1 4 1 1 1 5 1 1 0 1 6 3 2 4 4 1 0 1 1 0 1 1 3 1 5 3 3 1 1 0 1 2 1 2 2 3 3 4 4 4 4 5 5 5 5 4 5 5 8 7 5 5 8 10 11 8 7 9 6 12 8 6 7 6 6 7 10 7 11 12 19 19 20 20 20 21 21 20 20 20 20 20 20 20 19 20 9 10
8 5 6 7 2 0 2 1 4 2 3 3 1 0 1 1 2 1 2 1 3 2 2 3 2 2 2 1 2 3 2 2 2 4 5 4 3 2 2 2 2 1 2 3 3 4 3 3 3 4 4 4 6 5 5 5 5 4 5 5 5 8 7 7 5 6 5 6 6 6 6 5 6 6 7 10 9 14 13 17 18 19 19 19 19 19 19 19 20 19 20 19 18 18 10 7 7
4 7 9 3 3 1 0 1 3 0 6 4 3 1 3 0 0 0 1 1 1 1 2 1 0 1 2 2 1 1 1 1 1 5 4 4 3 4 3 2 1 1 1 1 1 2 3 3 3 3 4 4 5 5 5 5 4 4 4 4 5 5 5 5 5 6 6 6 6 5 5 5 5 5 9 13 11 7 8 13 17 17 18 17 20 12 16 17 18 18 18 18 12 7 6 7 7
3 8 3 4 4 4 3 1 1 3 4 4 2 0 3 0 0 0 3 2 2 3 6 3 4 6 6 5 3 1 1 1 1 2 3 3 3 3 4 5 4 2 2 0 1 2 2 2 2 4 3 3 4 5 4 5 4 5 4 4 5 4 5 5 5 5 5 5 5 5 5 4 4 5 5 5 6 6 6 6 8 8 7 8 14 8 8 8 9 8 8 9 7 8 7 7 7
5 4 1 4 1 7 1 0 1 4 2 6 2 3 1 0 1 2 4 1 1 1 1 8 4 6 6 6 5 1 2 2 2 2 4 4 5 5 4 3 2 1 2 3 2 1 2 1 2 3 4 4 4 4 4 5 5 5 4 4 4 5 5 5 5 5 5 6 4 4 4 5 5 5 5 6 6 6 7 7 7 6 7 7 8 7 7 7 7 7 7 8 7 7 7 6 6
10 3 3 2 1 6 1 0 1 2 2 3 1 1 1 1 0 0 1 4 2 4 2 4 6 7 6 2 3 2 3 5 4 5 4 3 4 4 4 3 4 4 3 4 1 1 1 2 2 3 4 4 4 4 5 4 4 3 4 3 4 5 5 5 5 5 5 5 5 4 5 5 5 5 6 6 7 6 6 6 6 6 6 7 7 6 7 6 6 7 6 7 6 7 7 6 6
11 5 1 4 3 5 2 1 3 4 8 1 0 1 0 1 0 0 1 5 5 3 3 4 3 0 2 5 4 6 6 6 8 6 5 6 6 5 3 4 3 1 4 4 2 1 1 1 1 2 3 3 3 4 5 5 3 4 4 4 4 6 5 5 5 5 4 5 5 5 5 4 5 5 5 6 5 5 6 5 5 6 6 6 5 5 6 6 6 6 6 6 7 7 7 7 6
9 7 0 2 3 1 1 3 5 4 4 0 3 0 1 1 0 0 4 6 4 3 2 1 2 3 1 2 4 4 4 4 6 6 4 5 3 3 2 2 2 3 4 4 3 3 2 1 2 2 3 4 4 4 5 4 4 4 4 4 5 5 5 4 4 4 5 5 5 5 4 5 5 5 5 5 4 5 5 5 5 5 5 6 5 6 6 6 6 6 6 6 6 6 6 6 7
3 3 2 2 3 1 0 4 5 4 0 2 0 1 3 2 3 2 4 2 3 1 2 2 3 4 3 5 5 4 5 7 5 5 7 3 2 2 5 2 2 4 5 5 4 4 2 1 2 2 3 5 4 5 4 5 3 5 4 4 4 5 4 4 4 5 4 4 5 4 5 3 4 4 4 4 5 5 5 5 6 6 6 5 6 6 6 5 6 6 6 6 6 6 6 6 6
3 5 5 7 1 1 5 3 3 2 1 1 0 1 0 1 1 2 1 3 0 2 2 1 5 5 5 4 4 3 4 7 6 3 4 3 4 4 5 1 4 4 3 4 4 4 2 3 1 1 2 3 4 5 4 5 4 4 4 3 4 5 3 4 4 4 5 4 4 4 4 4 4 4 4 4 4 4 5 5 5 5 6 6 5 5 5 5 5 5 6 6 6 6 6 5 5
7 8 7 7 4 5 1 2 4 1 0 3 1 1 1 3 1 3 1 0 1 5 1 1 1 4 4 4 4 4 4 5 3 3 6 5 7 6 5 5 5 4 5 5 4 3 3 3 2 1 3 3 5 5 4 4 4 4 3 4 4 4 3 4 4 4 3 4 3 3 3 3 3 3 4 3 4 4 5 5 5 5 5 5 5 5 5 5 4 4 4 5 4 4 5 5 5
1 2 6 2 5 3 6 1 2 2 1 2 0 1 2 2 1 1 2 2 0 3 3 2 3 4 4 4 5 5 6 4 3 4 9 7 4 3 7 6 6 6 4 5 5 4 4 3 3 1 3 4 5 5 5 4 4 4 4 4 4 3 4 4 4 3 3 3 3 3 3 3 3 3 4 4 3 3 4 4 5 5 5 5 5 5 4 5 5 5 5 5 5 6 6 7 5
2 7 4 3 3 3 4 1 3 1 1 4 1 0 3 2 6 4 2 3 2 1 2 4 4 4 4 4 5 7 7 5 6 8 7 6 5 5 6 5 4 5 6 4 4 5 3 3 2 2 3 5 4 5 4 5 4 4 4 4 3 3 3 4 3 3 2 2 2 2 2 3 3 2 3 3 3 4 4 4 4 5 5 5 5 5 6 5 5 6 6 5 6 6 6 5 6
3 1 5 1 1 1 2 2 4 1 1 4 0 1 3 4 2 1 1 4 7 6 5 5 5 5 5 5 5 6 9 5 7 7 7 7 6 5 6 4 4 4 4 4 7 6 4 3 2 3 2 4 4 4 5 5 4 4 5 4 4 3 3 4 3 2 2 1 1 2 1 2 2 2 2 2 3 3 4 4 4 4 4 4 5 5 4 5 5 6 5 6 5 5 5 5 5
3 1 2 3 4 1 4 1 3 2 1 5 2 0 3 4 5 2 2 2 4 6 5 5 5 5 5 5 5 6 9 6 7 8 8 7 6 6 6 6 5 5 8 7 5 4 4 4 3 4 3 4 4 4 4 5 5 4 4 4 4 3 4 3 2 1 1 0 1 1 1 2 2 2 3 2 3 3 4 4 4 4 4 4 5 5 4 5 5 5 5 5 6 7 6 6 4
4 3 0 1 2 1 2 0 1 1 1 3 2 2 3 2 2 0 2 3 3 5 5 5 6 6 6 5 5 5 7 9 6 6 6 5 5 5 5 5 8 8 6 7 7 5 4 4 4 4 4 4 4 4 5 4 4 4 4 4 3 3 3 3 2 1 0 1 1 1 1 1 2 2 3 2 2 3 3 3 4 4 3 4 5 5 5 5 4 5 5 5 3 4 5 5 5
2 4 3 1 0 1 0 3 0 3 1 1 4 0 4 4 6 7 5 3 3 5 7 6 6 5 5 4 5 6 5 6 9 7 5 3 4 4 4 5 6 5 5 6 7 9 8 5 5 4 3 3 4 5 5 5 4 5 4 3 3 3 2 2 2 1 1 0 0 1 0 1 2 2 2 2 3 2 2 3 3 4 3 4 4 4 5 4 4 4 5 5 4 4 6 6 6
0 2 2 1 0 1 2 1 1 4 3 0 2 2 8 9 8 6 3 1 5 7 8 5 5 5 5 4 5 5 6 6 9 5 4 4 2 2 3 4 4 4 4 5 5 4 4 5 4 4 4 4 4 4 4 4 4 4 3 3 3 2 2 1 1 1 2 1 1 0 0 0 2 2 2 2 2 3 3 3 3 3 3 3 3 3 4 5 4 4 4 4 5 3 4 4 4
2 2 2 2 0 0 0 2 1 3 4 1 1 3 7 11 8 5 2 0 5 7 4 5 6 5 5 6 5 5 5 7 7 4 3 2 1 1 2 3 3 4 4 4 4 4 5 4 4 3 4 5 4 4 5 4 4 4 4 2 2 1 2 2 1 2 1 1 1 0 0 0 1 2 2 2 2 1 2 3 3 3 3 3 3 5 6 6 7 6 6 3 4 3 4 4 5
4 4 5 1 1 3 2 1 1 1 0 2 2 3 5 10 9 8 4 3 3 5 7 7 6 6 6 5 6 6 5 7 2 3 3 2 0 1 1 2 4 3 3 4 4 5 6 7 6 6 5 5 6 6 4 5 3 2 1 2 3 3 3 3 2 2 2 2 1 1 1 0 0 0 1 1 2 2 2 2 3 3 3 3 4 4 3 4 4 4 5 3 4 4 6 6 7
2 5 3 1 0 1 1 0 3 4 1 2 0 5 8 9 8 6 2 1 6 8 8 8 8 7 6 6 7 6 6 4 4 2 0 0 0 1 2 3 4 5 4 4 7 7 6 5 7 6 5 5 5 7 6 4 3 5 5 5 3 5 4 4 3 3 3 2 2 1 1 0 0 0 1 0 1 1 2 1 2 2 3 3 3 2 3 3 4 4 5 5 4 5 5 6 7
3 1 1 1 0 4 6 1 3 3 0 5 1 6 11 10 7 6 3 5 4 4 6 5 5 6 6 6 7 6 3 5 2 4 3 3 1 1 3 4 4 4 6 8 6 5 5 5 5 5 6 6 5 5 5 3 2 2 3 3 5 2 2 2 3 2 3 3 2 2 1 1 0 0 0 0 0 0 0 0 1 1 2 2 2 3 3 4 3 4 5 4 6 3 2 3 6
5 2 2 2 2 3 2 1 4 4 2 2 4 6 11 6 5 7 7 5 4 4 4 7 5 7 8 7 5 5 6 5 6 7 6 4 4 3 3 4 6 4 4 4 5 7 5 6 5 5 6 5 5 4 3 2 3 2 2 3 2 2 2 2 1 1 1 1 3 2 1 1 1 1 1 0 1 0 0 0 0 1 1 0 1 2 2 3 3 4 4 4 3 4 5 5 4
1 3 2 0 2 1 2 3 5 3 0 1 4 3 6 5 0 2 0 1 3 4 3 5 5 7 6 5 5 5 8 8 8 6 5 5 5 7 8 7 4 6 6 7 8 8 7 9 8 7 7 6 5 4 5 4 5 4 4 3 3 2 2 1 0 2 3 3 3 2 4 3 2 2 1 1 1 1 0 0 0 0 1 1 1 2 2 2 2 2 2 3 4 2 5 3 3
2 0 1 0 1 2 4 5 5 3 1 4 4 6 2 3 5 7 7 6 5 2 3 8 7 5 3 5 9 5 6 5 7 8 9 8 8 6 5 5 6 6 8 9 8 8 7 7 6 6 5 5 6 5 6 6 5 6 5 5 3 2 4 3 7 7 6 5 5 3 3 3 3 2 2 1 1 1 1 1 0 0 1 1 0 1 1 2 2 3 2 1 2 2 1 4 4
1 1 0 1 1 1 1 7 1 2 1 5 2 2 6 6 3 1 4 5 9 8 5 9 7 7 5 7 6 6 7 7 6 5 5 5 7 5 6 7 8 8 11 6 5 6 6 6 6 7 7 6 5 5 6 5 5 5 7 7 6 7 7 6 3 3 5 4 3 3 4 3 3 3 2 2 1 1 1 1 1 1 1 2 0 1 1 1 2 2 1 2 2 2 2 2 4
0 0 3 3 1 1 2 1 1 0 1 3 6 5 1 7 7 2 3 3 7 8 10 9 9 8 8 7 7 6 7 6 7 8 8 7 6 8 11 11 8 12 9 5 6 5 8 8 7 8 6 6 6 6 7 7 7 6 6 5 5 6 7 7 4 4 2 1 2 3 3 3 3 3 2 2 2 2 2 1 1 1 1 2 1 0 1 2 2 1 1 1 2 1 1 2 2
0 1 1 0 0 1 2 1 1 0 0 1 7 4 1 3 7 3 2 1 4 8 10 10 9 8 8 8 8 8 8 7 7 8 8 9 10 10 9 9 10 8 5 7 9 9 7 5 6 5 6 6 6 6 7 7 6 7 7 6 6 6 5 5 2 1 3 2 3 3 3 4 3 3 2 2 2 2 2 2 1 1 1 2 1 0 1 2 2 2 3 2 2 3 1 2 1
0 3 3 3 3 3 1 0 1 2 2 2 4 5 0 7 6 6 2 0 6 8 8 9 8 7 7 8 8 7 5 5 5 8 7 7 7 7 6 5 5 7 6 4 4 3 5 5 6 6 8 7 6 7 7 7 6 6 7 6 7 6 4 2 2 3 3 3 4 4 4 5 5 3 3 3 2 3 2 2 2 2 2 2 2 1 2 2 2 2 2 2 2 2 2 1 2
1 1 1 2 3 3 2 5 2 2 1 2 2 4 1 3 4 2 1 0 2 3 5 5 6 5 7 7 7 6 6 6 7 7 8 9 6 5 4 7 8 5 4 4 5 5 5 6 7 8 9 6 6 7 7 8 6 6 7 7 8 7 5 4 4 5 4 4 6 5 5 5 4 5 3 3 3 3 3 2 2 3 2 2 2 2 3 2 2 2 3 2 2 1 2 3 3
1 0 0 2 1 5 1 3 4 2 2 2 1 1 3 0 5 3 8 4 4 4 4 5 7 8 7 5 6 7 6 6 6 5 8 7 6 6 4 7 8 7 4 6 6 5 6 6 6 8 7 7 7 7 6 7 7 7 6 7 8 8 7 6 8 8 7 7 6 6 5 4 5 5 3 3 3 3 3 3 2 2 2 2 3 2 2 2 2 2 2 3 2 2 2 2 2
2 2 3 2 4 4 1 7 2 0 0 0 1 2 1 4 9 4 6 7 6 5 7 7 6 9 8 6 5 4 4 5 6 7 7 6 8 9 7 9 6 7 9 8 8 7 6 6 8 9 11 8 9 7 8 8 7 8 8 8 7 6 7 7 7 7 5 7 6 5 5 6 5 5 6 5 5 4 3 3 3 3 3 2 3 2 3 2 2 2 2 3 3 3 2 2 3
2 1 1 3 3 4 0 3 2 4 3 1 1 2 1 5 7 5 6 5 4 5 7 7 8 9 10 9 6 5 5 6 7 7 7 8 9 9 9 8 8 8 8 9 8 8 7 7 8 10 13 8 8 8 9 9 10 9 8 8 8 7 7 7 7 7 6 6 6 7 7 7 7 7 6 7 6 5 4 4 3 3 3 3 3 3 3 3 2 3 3 3 3 3 2 3 3
0 1 0 2 5 1 0 1 1 2 5 5 3 1 2 5 1 1 7 7 7 6 6 6 7 9 9 8 8 8 8 7 6 7 9 10 11 10 9 9 9 9 9 8 7 8 7 9 9 12 11 9 10 11 9 11 10 9 8 8 7 6 8 7 8 7 6 7 6 7 6 6 7 6 7 6 4 5 5 4 4 4 4 4 3 3 3 3 3 2 3 3 3 3 3 3 3
0 2 2 4 0 3 1 1 2 1 3 5 1 3 3 3 3 6 4 7 6 4 5 2 6 4 4 6 6 7 7 7 5 7 9 10 11 8 8 8 9 8 9 8 8 8 9 11 10 12 14 12 11 11 11 12 11 8 8 9 9 8 7 6 6 6 6 7 7 7 7 7 7 6 5 5 5 5 5 5 4 5 4 4 3 4 4 3 3 3 3 3 4 2 3 4 4
1 1 1 1 2 8 7 1 0 1 2 2 1 7 5 7 4 4 7 5 5 5 5 5 6 6 5 7 7 7 7 7 6 8 9 10 7 8 9 9 8 8 8 10 12 11 13 12 11 12 12 9 10 12 13 11 10 9 10 10 9 8 9 9 9 8 8 7 6 7 7 7 6 6 6 5 6 5 6 6 6 5 5 5 4 4 4 4 3 4 4 4 5 4 4 4 4
1 1 2 2 1 3 2 0 1 5 2 3 3 2 8 6 0 5 7 9 7 7 6 7 8 5 7 9 8 8 8 7 6 7 7 8 8 9 9 9 10 11 11 11 12 11 11 12 12 13 11 12 12 11 12 11 12 12 11 11 10 11 10 10 9 8 7 6 6 6 5 6 7 6 6 5 5 6 6 6 6 6 5 5 5 5 4 5 4 5 5 5 5 3 4 4 4
0 1 1 0 1 1 3 2 3 4 3 5 7 2 6 3 2 5 5 5 7 9 9 8 9 8 7 9 10 9 7 8 9 9 9 9 10 11 11 11 11 10 10 11 10 9 9 9 10 11 14 15 13 10 9 8 9 9 9 11 12 11 10 9 8 7 6 8 9 8 8 8 6 6 6 6 6 6 6 6 6 6 6 6 5 6 5 5 5 5 5 6 5 4 4 5 5
1 0 1 1 2 2 1 1 2 4 1 5 5 4 0 5 5 2 5 4 5 7 7 7 9 8 8 8 9 10 10 8 8 9 9 9 9 9 9 10 11 11 11 11 10 6 10 11 10 11 10 8 7 9 10 11 11 10 10 8 9 10 10 10 9 9 9 10 9 9 9 8 9 7 7 7 7 8 7 7 7 7 7 6 7 6 6 6 5 6 6 6 5 5 5 6 5
0 2 1 1 2 1 3 2 1 0 3 2 1 6 4 6 6 4 4 4 5 4 6 7 9 9 9 8 9 10 9 9 9 8 9 9 9 9 9 8 8 7 6 7 8 10 11 7 10 11 13 12 11 12 10 12 9 10 10 11 11 10 11 10 9 10 10 10 9 9 9 8 5 8 7 8 9 9 8 8 8 8 8 8 7 7 6 6 6 7 6 6 6 6 7 6 5
0 1 1 5 5 1 1 2 1 2 1 2 2 5 8 11 3 6 4 5 4 4 4 8 10 10 10 10 9 6 9 10 8 9 8 9 9 9 8 6 6 6 9 10 10 7 9 11 12 10 9 10 12 11 12 12 10 10 12 12 12 9 9 8 10 10 11 10 10 10 9 7 9 9 8 9 10 9 8 9 9 9 9 9 8 8 7 7 7 7 7 6 7 7 7 7 6
Wind_Direction
40 58 65 94 61 110 55 2 56 340 54 58 90 16 60 13 86 55 352 328 39 313 281 23 33 12 74 135 133 140 158 98 257 112 89 246 266 296 270 281 333 260 268 292 303 324 323 321 7 12 10 0 15 10 8 17 15 10 5 11 16 15 14 16 17 21 15 6 3 8 15 12 11 12 14 9 7 13 11 6 8 13 8 8 6 15 5 9 10 11 9 6 8 10 10 15 9
34 357 58 58 19 62 16 37 99 22 57 87 31 76 35 332 40 66 88 139 195 155 204 107 79 75 62 95 122 103 35 25 171 105 266 236 300 295 296 325 327 340 300 284 322 328 320 312 7 12 360 7 19 13 6 18 17 13 6 11 13 19 14 17 20 19 15 12 8 8 13 8 16 14 8 12 8 12 9 7 12 11 10 11 11 7 12 8 10 9 10 9 8 12 11 11 7
34 17 340 34 40 61 101 35 80 108 73 68 355 31 351 54 93 291 246 168 160 143 143 90 96 64 29 43 37 67 32 278 230 250 242 321 35 291 312 324 301 254 261 294 319 325 325 311 16 11 8 14 16 16 7 24 18 13 10 14 13 17 16 19 19 15 15 11 15 14 12 12 17 12 9 12 12 10 11 7 12 10 10 9 10 9 11 9 15 9 10 10 13 13 10 5 4
73 28 90 66 48 37 51 33 81 91 78 114 65 338 71 152 201 207 334 165 126 101 323 351 53 270 98 41 86 90 68 7 195 149 355 341 188 243 271 300 329 343 308 304 315 322 327 322 17 15 9 15 15 15 21 22 17 12 11 15 16 18 18 19 17 17 12 14 17 15 14 16 15 13 11 13 14 10 10 12 15 9 13 11 11 11 5 12 12 13 9 12 10 14 9 5 3
62 39 42 86 97 10 82 86 100 71 76 194 114 270 243 200 122 85 16 53 100 90 352 225 69 333 118 121 286 101 243 264 326 176 258 257 247 242 281 328 19 53 348 316 317 318 322 333 19 15 16 14 16 18 28 19 17 18 15 15 18 20 19 20 18 15 14 15 17 16 15 17 17 16 14 14 13 11 12 11 14 12 13 18 11 8 12 15 9 10 13 13 11 9 7 4 5
64 62 20 64 71 179 61 57 38 64 103 156 104 174 202 211 120 127 83 100 247 294 223 49 156 184 33 348 173 90 211 59 230 245 169 286 181 298 282 118 45 56 313 313 309 318 323 340 17 18 17 19 14 27 28 19 21 20 19 19 20 22 20 19 17 15 16 17 20 19 18 18 19 18 17 16 16 13 15 11 14 11 15 14 13 10 17 10 11 7 19 11 10 11 9 2 11
44 48 12 50 41 49 79 81 63 76 18 147 157 149 171 152 132 105 128 89 243 44 36 101 76 73 66 308 2 255 191 232 65 263 179 71 307 322 38 109 96 33 314 303 322 335 330 2 19 19 19 18 23 28 23 24 21 21 23 25 23 23 21 19 17 18 19 21 21 22 20 24 20 22 18 18 19 15 13 14 14 13 15 15 9 16 13 14 12 8 12 11 11 10 9 7 9
47 95 344 81 52 56 49 68 62 112 12 91 199 130 182 145 164 84 352 98 336 63 341 291 37 105 245 37 126 282 333 198 223 322 275 325 315 336 96 114 101 290 304 308 327 340 345 356 25 22 19 25 25 28 28 24 24 21 25 27 27 24 22 20 20 20 22 23 23 22 22 25 24 24 20 21 21 18 16 15 15 14 14 14 12 14 13 13 12 12 11 11 12 10 9 8 9
31 77 2 73 59 47 72 53 81 5 36 8 18 7 111 152 154 114 39 5 114 35 2 328 287 69 261 24 118 276 302 297 304 288 294 12 12 337 137 130 132 250 286 313 338 350 355 357 30 26 27 27 28 28 25 27 25 25 25 30 28 27 24 23 22 23 24 25 25 24 25 25 25 26 22 23 23 20 18 15 18 18 16 15 14 14 12 10 11 12 12 13 11 10 9 9 10
46 67 25 90 156 63 80 340 63 322 72 332 45 14 344 350 57 57 118 51 60 35 22 334 121 111 176 92 329 1 321 351 319 334 336 35 259 323 194 226 198 181 269 332 359 358 356 2 23 30 32 31 32 28 27 27 28 29 32 32 31 29 26 24 25 26 27 27 25 27 26 28 28 26 25 24 24 22 20 17 19 20 16 16 16 15 14 12 11 12 11 14 13 10 10 10 10
44 11 132 70 52 78 76 75 64 10 19 323 27 347 6 40 85 41 48 133 344 104 325 29 36 81 47 267 212 246 300 333 5 290 314 312 301 149 196 314 294 356 8 17 357 20 13 15 19 24 40 38 36 33 30 30 31 34 37 34 32 30 28 27 28 28 28 28 28 28 29 30 28 28 28 24 26 23 20 16 20 21 18 17 16 15 15 12 12 12 12 13 14 12 12 11 11
60 13 33 82 52 121 184 110 87 51 356 14 41 337 350 102 103 84 10 80 340 15 66 31 196 149 47 342 311 306 325 326 232 238 289 335 257 172 145 357 7 22 35 35 22 18 17 27 26 17 39 43 41 39 36 36 37 40 39 37 34 32 31 30 31 31 31 30 30 30 31 29 30 29 28 27 25 24 23 20 19 23 19 18 17 17 16 15 14 14 13 13 14 14 14 14 14
103 112 80 72 31 59 167 90 157 104 360 5 195 341 326 54 85 129 113 125 13 53 352 329 162 78 61 96 259 329 350 288 308 282 293 328 214 99 53 40 44 29 26 37 52 11 25 38 29 24 39 42 37 40 41 39 43 44 42 40 37 36 34 34 33 33 32 32 33 33 32 31 30 29 27 27 25 25 26 23 19 23 20 19 19 18 18 17 18 17 16 15 13 16 15 15 15
94 149 101 105 14 92 96 133 26 90 29 259 270 305 19 82 214 164 128 51 352 90 238 185 111 141 121 32 322 332 258 284 314 319 299 351 50 58 49 30 40 34 31 47 46 28 37 33 35 34 45 42 40 34 29 44 47 48 46 42 40 39 37 37 36 35 34 34 34 35 33 31 28 29 27 26 25 26 26 23 20 22 21 21 21 20 21 20 20 21 20 18 16 17 17 17 16
99 151 85 111 55 63 234 102 164 133 124 161 309 32 54 22 121 59 102 118 23 218 296 337 183 117 247 127 294 238 250 322 332 355 79 60 54 49 38 40 35 43 32 40 42 42 31 41 38 45 49 51 47 43 33 34 50 50 48 46 44 41 40 38 38 35 34 34 35 35 36 31 27 25 28 24 25 24 26 23 20 21 23 22 22 23 22 22 22 23 22 21 20 19 19 18 18
122 92 81 94 17 108 322 92 18 97 144 134 353 113 78 10 331 63 294 178 192 317 49 232 3 243 159 116 218 213 228 301 347 62 80 66 44 34 30 24 35 36 38 34 35 37 45 59 44 53 53 55 56 55 48 41 47 51 50 48 45 43 40 41 38 38 33 35 34 36 36 31 23 20 27 22 23 22 24 25 22 22 24 23 23 23 24 22 23 23 23 22 22 21 19 17 17
61 81 68 42 86 68 215 109 139 101 237 268 302 24 114 355 318 99 156 74 85 335 357 193 193 67 191 184 202 196 289 247 65 72 78 55 42 13 1 14 5 31 26 26 35 32 48 59 48 62 55 59 63 65 55 52 58 56 45 48 47 44 43 41 41 36 35 26 36 34 31 27 11 10 19 23 22 19 22 24 23 21 23 24 21 21 22 23 23 22 23 22 22 21 19 14 13
55 53 106 62 149 75 193 158 183 140 116 223 84 315 103 99 7 217 7 18 41 355 46 316 326 343 218 249 314 252 283 97 43 102 83 97 51 50 45 332 33 56 342 3 21 28 48 43 55 63 63 60 70 68 69 63 56 61 51 41 49 45 44 40 34 37 32 24 29 27 26 27 13 8 22 27 15 21 15 24 23 21 21 24 21 20 20 22 20 21 22 21 20 19 15 9 5
67 94 55 121 195 126 146 198 186 113 164 161 192 200 113 164 131 260 84 323 3 27 352 15 358 325 6 40 358 35 49 67 99 119 134 140 143 163 212 301 334 360 57 32 19 22 32 50 46 62 67 77 76 72 69 67 66 67 58 53 46 47 42 41 28 29 21 26 25 23 27 23 20 12 25 32 29 24 22 24 24 22 21 23 24 20 20 20 20 19 20 21 19 16 11 4 3
17 108 81 42 215 123 207 164 183 241 137 109 117 288 99 251 126 293 155 195 360 170 194 320 329 238 245 268 325 351 63 40 121 131 153 172 184 187 201 244 257 236 197 117 52 22 38 53 47 62 72 73 87 84 73 72 71 68 62 52 52 44 37 37 30 27 24 25 26 27 21 24 21 15 25 26 25 17 14 20 22 21 20 18 23 18 16 15 17 14 15 18 14 7 4 3 359
332 66 112 156 191 103 342 21 158 100 110 136 106 282 86 318 225 94 177 89 307 266 223 168 202 215 223 238 260 316 259 239 159 114 156 206 237 225 202 193 185 203 197 25 54 38 21 41 67 61 65 70 86 82 85 80 78 74 63 56 55 45 41 36 32 27 25 21 24 29 22 25 16 19 16 15 18 12 14 15 14 15 10 10 18 13 12 5 8 3 3 10 5 4 0 1 358
87 91 70 119 156 75 293 332 297 111 99 95 89 88 190 276 53 83 140 151 223 219 253 210 199 192 190 212 233 261 241 238 228 191 193 192 198 219 231 251 253 253 199 110 125 73 37 45 84 89 75 71 79 90 87 86 80 76 66 63 62 47 43 40 34 29 24 20 18 31 23 23 21 19 18 20 18 12 18 17 15 11 12 13 13 11 8 7 4 2 4 5 2 358 359 353 0
92 348 37 26 204 121 260 301 320 112 82 88 70 189 84 48 127 217 168 187 236 220 225 209 207 195 193 147 143 199 228 227 233 218 210 231 254 264 252 223 177 158 155 161 170 155 93 65 66 82 96 94 82 90 80 78 71 83 94 89 71 53 45 44 34 29 25 19 18 23 30 19 20 21 21 16 22 9 20 15 13 10 13 13 9 10 7 5 2 1 360 2 355 357 357 353 360
90 111 61 29 54 88 277 94 50 83 97 90 181 52 81 29 5 128 213 249 230 270 259 238 233 241 132 155 191 198 206 210 222 225 207 209 205 224 245 228 223 132 126 169 172 159 129 95 59 93 116 108 105 91 87 76 66 65 66 63 61 62 53 45 36 32 25 24 23 20 39 23 23 22 20 19 13 13 20 10 8 17 14 13 5 10 7 4 3 0 360 359 1 359 356 354 1
78 94 259 177 51 16 59 102 56 62 50 322 73 85 309 203 280 83 258 251 261 277 20 98 127 120 109 205 219 230 239 262 261 258 282 257 249 288 300 293 195 154 154 180 180 144 173 123 84 100 109 110 105 100 89 90 85 76 65 64 59 63 54 51 46 36 33 23 23 19 26 29 20 23 23 16 360 24 12 11 14 16 14 12 7 9 10 1 3 359 359 359 360 358 358 355 4
51 116 123 71 85 51 304 65 42 34 144 28 13 331 305 249 233 238 237 248 224 43 73 67 112 130 192 222 233 224 234 240 257 272 244 260 257 285 275 269 177 178 191 172 162 180 176 91 115 139 134 123 120 96 103 93 86 83 65 60 67 64 57 53 52 43 29 29 24 21 14 35 27 20 15 12 23 18 13 10 17 12 15 7 10 7 0 3 357 356 0 1 0 360 1 358 5
127 88 87 95 325 82 9 104 357 336 92 311 110 288 276 305 64 297 295 248 357 102 93 26 132 183 221 232 252 252 246 252 245 296 312 269 260 226 255 230 201 208 152 172 182 182 166 113 132 122 131 116 113 105 105 99 95 90 81 79 69 66 57 55 50 46 37 28 28 18 21 16 37 16 18 18 24 19 17 16 16 6 14 8 2 1 350 3 354 357 358 353 359 357 358 352 6
96 127 88 41 15 72 2 60 8 2 344 37 75 268 278 308 72 225 239 188 297 144 200 180 170 220 247 264 275 278 262 259 268 271 260 262 240 222 235 208 213 192 170 190 189 178 138 147 139 112 115 121 111 111 110 110 102 105 97 84 75 71 70 60 56 45 38 31 20 25 17 17 26 22 21 15 36 20 21 18 9 15 7 355 359 356 355 356 356 346 357 353 353 2 356 8 9
137 74 73 342 9 42 4 51 330 22 317 14 300 17 344 337 196 265 243 303 95 151 189 243 255 263 275 286 293 285 261 271 259 240 243 241 260 221 228 217 191 185 212 182 179 161 161 172 149 120 100 104 117 122 120 119 113 101 104 93 86 76 67 65 61 52 47 19 28 21 18 17 29 24 20 25 28 24 24 23 18 11 356 352 352 355 353 352 358 4 10 2 8 14 14 11 7
104 35 108 35 5 25 349 294 347 13 280 7 318 278 274 273 248 266 302 136 104 120 243 257 266 277 282 285 282 284 281 274 261 240 245 241 239 231 228 224 193 183 176 169 158 171 167 166 149 133 112 111 123 125 124 121 122 121 103 99 97 85 71 77 69 47 42 29 16 25 21 26 31 17 29 24 28 30 25 29 20 7 351 350 347 357 4 3 1 6 7 8 16 17 13 5 12
92 246 55 87 51 9 344 41 319 101 340 27 48 123 294 274 286 322 328 171 155 192 226 245 261 273 275 278 280 277 280 243 255 264 255 241 233 220 219 219 189 174 142 158 178 176 160 170 161 124 119 106 117 127 131 126 125 115 112 107 107 109 98 91 81 64 41 9 26 20 16 42 21 25 26 37 32 33 31 23 19 358 345 348 354 352 2 1 6 5 2 11 4 19 14 12 15
35 74 326 330 97 270 305 48 26 58 335 14 80 40 229 257 262 291 306 161 165 201 226 242 258 267 271 277 281 283 276 284 268 267 255 248 219 215 200 205 180 175 173 173 173 151 161 183 142 137 128 121 128 137 135 126 130 127 126 118 105 101 108 101 96 100 84 3 34 28 21 48 35 20 30 30 45 32 33 23 6 352 353 352 353 351 2 15 3 1 359 10 9 14 10 8 11
359 92 72 328 34 247 353 36 54 344 244 350 74 242 321 322 260 289 352 163 188 214 250 258 261 266 275 276 282 283 300 299 298 269 267 238 234 209 199 185 184 185 168 164 165 157 166 174 150 148 150 143 134 127 123 121 123 119 111 115 115 114 117 130 125 155 90 68 33 51 5 57 27 33 27 21 54 38 22 22 354 357 353 0 356 353 3 1 11 1 357 4 21 4 7 4 5
344 32 110 210 103 348 77 311 168 9 87 259 7 163 236 244 284 298 311 183 174 216 244 254 256 265 271 282 282 279 279 282 284 292 296 287 241 222 210 189 179 172 174 171 166 166 173 171 165 160 156 147 143 145 135 128 122 110 111 118 119 111 131 143 170 169 157 164 61 57 352 43 53 32 24 23 35 52 32 12 350 354 358 4 357 355 350 342 2 13 1 355 2 5 11 6 354
188 42 46 8 345 212 268 66 297 13 12 214 336 233 275 280 295 293 279 230 176 222 227 245 263 272 280 281 280 280 275 274 265 265 284 304 291 213 193 167 159 166 169 167 158 154 146 159 162 160 148 146 134 126 118 109 106 93 87 94 104 118 115 157 181 178 184 187 90 33 40 37 71 42 26 9 43 38 9 3 1 353 355 2 359 354 354 358 4 7 12 355 353 2 8 347 340
141 166 149 134 117 236 220 238 296 40 336 7 348 278 301 302 302 295 324 76 190 235 283 281 269 271 275 275 277 271 267 263 257 269 302 314 280 176 168 149 154 158 155 153 153 151 158 157 155 155 161 150 130 119 116 117 113 125 128 102 108 165 207 184 206 203 209 186 172 156 243 41 41 81 33 21 7 50 19 1 359 356 351 10 11 19 11 4 356 354 358 2 357 345 3 358 358
107 92 93 118 216 290 284 305 292 348 314 258 259 284 271 276 262 266 285 305 228 261 259 255 261 264 265 265 263 268 261 244 260 277 285 289 285 104 137 148 143 131 144 158 161 177 177 172 164 179 183 163 148 143 145 151 131 114 96 190 200 209 194 207 204 222 210 202 178 240 242 133 41 344 78 45 32 25 22 360 360 1 346 11 20 18 356 349 353 343 338 339 3 359 8 2 6
110 108 85 66 122 302 194 129 346 321 47 286 45 313 289 260 274 264 302 119 238 222 236 253 255 249 254 253 269 261 251 296 298 287 288 356 138 126 132 158 155 150 205 180 188 190 186 178 183 182 175 181 178 172 173 176 175 178 167 190 179 182 201 190 214 228 214 199 196 225 228 131 33 313 119 82 62 41 22 3 2 354 355 354 27 354 10 11 358 358 352 353 358 8 10 355 356
28 89 172 66 277 252 280 256 338 324 79 264 356 349 285 279 272 280 228 200 244 229 207 225 216 256 255 255 251 263 290 265 288 262 277 271 243 220 178 192 213 210 181 193 193 177 188 193 202 188 187 186 194 180 159 182 188 158 147 180 163 186 244 211 200 191 184 184 214 224 211 259 253 221 299 162 136 83 359 24 355 319 356 4 13 5 357 7 4 10 1 358 340 349 350 349 6
57 2 29 296 279 19 308 304 1 340 51 314 316 309 285 306 278 261 252 211 259 252 233 248 222 239 245 241 233 238 232 234 236 223 228 240 229 228 226 215 214 224 195 200 198 197 195 202 199 195 198 194 187 191 169 138 114 115 86 130 124 133 197 183 162 73 146 161 228 219 231 217 244 243 241 222 134 243 181 137 287 351 316 355 69 9 1 2 8 9 3 357 343 353 360 344 360
12 91 112 45 343 331 191 281 326 299 329 10 303 292 314 342 17 240 4 315 301 297 320 277 257 235 258 292 287 227 225 210 220 237 253 249 232 223 211 212 189 209 212 205 201 200 198 201 198 193 191 191 188 184 148 136 108 83 88 69 73 63 43 50 168 235 209 211 203 216 222 207 228 243 241 249 202 191 229 258 267 282 304 306 57 22 8 346 335 329 355 6 12 350 343 334 329
341 236 117 155 145 306 316 315 5 19 328 29 33 8 320 299 289 247 287 340 318 303 324 272 268 273 270 253 248 247 242 232 216 217 216 215 218 230 237 227 210 220 222 218 205 205 198 200 191 195 191 191 188 180 160 154 153 146 144 140 174 217 229 215 218 215 209 212 211 201 203 207 216 236 252 236 248 171 232 247 259 292 300 322 51 357 317 348 353 348 355 342 349 351 273 331 332
72 292 181 160 152 105 3 342 44 11 54 340 24 86 271 329 321 302 315 329 293 302 287 273 280 272 261 246 244 236 229 230 243 262 269 256 240 237 242 229 221 219 229 213 202 209 208 201 195 192 191 189 188 180 174 161 154 170 181 189 193 197 214 237 227 215 197 214 194 190 206 212 213 219 228 236 236 228 199 246 248 257 274 280 327 42 353 314 296 311 353 5 313 326 20 336 342
18 333 117 105 77 19 335 39 46 189 326 271 39 69 232 316 296 280 293 314 293 301 285 271 263 259 254 249 243 236 231 225 215 228 235 239 236 218 224 225 219 221 223 189 208 204 204 204 192 197 196 190 189 177 180 178 175 187 194 208 209 215 214 234 211 208 192 179 183 220 206 220 220 219 225 237 227 243 204 237 242 267 280 278 259 332 281 294 304 309 348 292 286 292 289 335 317
254 216 177 118 107 160 97 62 93 96 330 286 344 345 74 265 264 309 343 329 311 284 271 269 259 251 248 248 246 237 231 223 213 223 230 226 226 226 229 233 229 234 223 204 208 208 203 198 195 194 202 196 191 187 181 191 186 187 195 196 222 229 225 240 211 193 175 187 201 231 216 223 225 236 233 231 248 244 246 212 230 255 272 288 270 233 287 296 302 313 328 347 343 313 303 283 302
277 135 104 85 70 74 54 96 35 337 54 300 327 355 45 288 277 344 327 270 282 264 269 271 263 255 251 247 250 245 242 237 229 233 240 244 241 245 244 261 273 238 232 234 232 200 198 186 195 196 210 202 193 194 190 193 194 182 189 200 212 230 219 224 164 201 194 190 212 215 215 217 221 232 239 242 254 250 263 270 235 247 262 276 269 231 289 296 282 276 279 264 262 294 313 307 251
118 128 49 5 37 17 22 64 89 53 33 266 266 316 82 301 281 253 84 243 208 279 307 287 290 278 261 248 244 246 236 233 232 232 238 244 244 252 262 251 250 262 236 220 222 210 195 194 198 204 213 201 195 198 190 199 197 191 198 200 206 213 208 193 200 226 213 204 219 220 210 216 213 222 228 235 228 246 253 249 239 251 252 267 297 318 273 280 292 286 287 290 282 263 309 317 327
108 75 49 31 329 358 29 340 30 77 297 258 263 305 315 318 299 324 241 280 236 215 255 284 304 309 293 264 248 239 240 241 245 241 250 247 259 253 245 254 248 249 238 225 220 206 204 203 198 212 217 207 203 201 197 205 199 206 208 201 206 209 194 196 206 216 207 212 212 218 212 212 225 227 228 239 241 233 235 247 260 271 280 274 273 252 271 266 265 277 279 275 278 275 254 283 276
70 57 31 61 283 31 313 14 7 355 185 181 342 340 19 229 226 254 293 273 280 230 231 251 280 298 300 292 277 274 255 258 251 243 243 246 236 239 233 241 245 240 228 223 217 206 207 205 202 208 222 206 206 197 202 205 205 210 206 207 213 204 203 206 212 219 207 211 207 214 202 216 213 225 225 224 231 219 213 229 239 243 252 250 252 264 263 260 258 254 259 268 270 277 274 278 283
67 75 99 64 32 36 353 274 223 299 301 286 6 286 250 255 288 238 244 257 229 250 241 243 252 261 278 284 292 289 263 234 237 237 239 238 234 233 228 230 229 232 229 223 215 207 206 207 206 208 226 203 203 200 205 206 213 213 207 208 209 203 211 209 216 215 212 208 201 210 208 209 210 218 214 220 213 208 210 216 222 226 226 243 249 249 253 254 240 241 251 251 255 254 262 256 249
136 165 90 171 139 145 13 244 338 257 248 277 288 26 238 20 238 214 229 260 289 267 262 258 253 256 263 277 278 273 274 260 234 236 233 231 234 228 228 225 227 226 225 222 215 214 201 212 206 214 224 211 200 207 203 211 214 212 209 209 210 204 213 212 218 213 208 205 206 209 212 208 211 218 213 218 199 204 210 211 220 225 232 233 243 250 256 255 255 253 247 242 255 259 257 258 265
217 168 101 60 60 148 88 210 163 257 337 343 332 216 188 200 277 286 289 296 285 296 280 288 280 266 278 288 268 260 258 260 240 240 245 242 237 235 232 233 230 228 225 220 216 210 208 217 210 214 217 212 202 204 208 210 213 206 208 208 212 209 214 215 224 219 217 206 208 206 213 209 214 213 212 204 208 198 203 210 217 223 220 225 228 231 238 241 236 230 247 245 253 251 257 259 260
213 103 40 162 132 95 102 71 87 93 59 252 230 312 296 292 318 291 338 2 330 344 322 333 304 303 320 286 273 267 261 257 249 240 245 251 248 238 233 232 233 229 226 220 217 207 208 210 208 218 223 218 208 208 210 207 210 203 212 210 208 209 211 213 216 218 215 209 209 211 212 214 209 210 213 203 207 202 203 205 213 219 221 220 227 229 229 230 224 224 233 237 241 255 257 257 259
77 52 196 115 130 130 125 255 345 60 96 265 38 303 306 19 248 323 357 15 327 340 329 305 295 292 295 275 272 267 264 263 268 262 256 254 253 248 241 236 232 228 223 225 224 214 212 211 207 213 217 217 219 211 210 206 205 209 212 210 211 210 211 216 214 218 209 206 213 214 212 213 213 209 205 208 202 206 209 209 211 217 217 216 222 225 222 223 220 225 223 227 228 235 254 261 256
155 154 155 56 273 47 332 90 11 351 353 303 315 276 243 198 275 347 335 334 315 322 324 334 327 322 291 290 291 288 286 293 283 276 270 260 249 245 241 238 236 233 233 230 232 218 215 217 216 212 217 215 215 210 215 217 210 213 211 210 207 209 212 212 212 210 203 210 214 211 210 215 208 201 205 205 204 209 209 213 211 219 215 220 218 223 217 220 213 226 225 226 225 222 234 250 251
73 331 15 3 94 128 54 123 174 120 261 32 296 28 256 210 223 215 261 271 278 297 324 317 308 299 297 297 297 297 302 292 283 280 278 274 273 265 259 254 250 240 235 235 234 225 222 220 215 220 227 226 215 210 206 214 213 214 219 213 216 212 210 209 206 202 208 213 216 209 211 210 212 200 205 203 206 208 208 210 211 214 218 217 218 219 212 216 212 218 221 226 225 218 226 234 245
325 42 344 8 43 217 110 35 80 217 169 168 221 334 282 266 213 174 241 254 262 249 282 294 296 302 301 288 286 295 294 294 289 282 282 280 275 274 267 263 266 274 267 258 241 231 232 227 226 222 218 219 218 218 205 216 203 213 215 216 214 209 214 208 207 206 212 216 214 211 211 211 195 211 198 206 209 210 209 210 211 213 215 215 216 218 210 209 212 218 218 221 225 222 228 232 230
168 147 191 176 105 99 129 267 26 70 77 218 116 267 272 272 176 204 220 247 257 256 236 282 291 295 298 300 298 288 294 294 287 288 285 284 283 278 276 269 264 263 258 250 245 243 240 228 226 225 224 227 222 221 212 215 207 207 210 217 218 215 214 207 211 211 216 216 214 212 208 197 211 213 198 209 210 209 209 209 212 216 215 215 216 216 210 206 213 215 221 212 217 222 229 234 229